Tracking 30970 objects as of 3-Jul-2025
HD Live streaming from Space Station
objects crossing your sky now

COSMOS 1275 DEB

Track COSMOS 1275 DEB now!
10-day predictions


NORAD ID: 13816
Int'l Code: 1981-053HP
Perigee: 828.9 km
Apogee: 1,061.7 km
Inclination: 83.0 °
Period: 103.8 minutes
Semi major axis: 7316 km
RCS: 0.0104 m2 (small)
Launch date: June 4, 1981
Source: Commonwealth of Independent States (former USSR) (CIS)
Launch site: PLESETSK MISSILE AND SPACE COMPLEX (PKMTR)

Note: This is SATELLITE DEBRIS
Your satellite tracking list
Your tracking list is empty




NASA's NSSDC Master Catalog

Two Line Element Set (TLE):
1 13816U 81053HL  25183.67870934  .00001733  00000-0  13209-2 0  9990
2 13816  82.9859 335.0950 0159133 103.9503 269.4000 13.87282177111808
Source of the keplerian elements: AFSPC